![]() |
EMODnet Physics ERDDAP
Easier access to scientific data |
log in|
Brought to you by EMODnet Physics |
| Dataset Title: | NDBC - Collection of dew point temperature (DEWT) TimeSeries - IN SITU MultiPointTimeSeriesObservation
|
| Institution: | NDBC (Dataset ID: TS_DEWT_NDBC) |
| Information: | Summary
| License
| FGDC
| ISO 19115
| Metadata
| Background
| Subset
| Data Access Form
| Make a graph
|
| Name | Last modified | Size | Description | |
|---|---|---|---|---|
| Parent Directory | - | - | ||
| 46029_TS_DEWT_012001.nc | 18-Jan-2026 07:33 | 446210 | ||
| 46029_TS_DEWT_012002.nc | 18-Jan-2026 07:39 | 1666247 | ||
| 46029_TS_DEWT_012003.nc | 18-Jan-2026 07:44 | 1819297 | ||
| 46029_TS_DEWT_012009.nc | 18-Jan-2026 08:16 | 1663060 | ||
| 46029_TS_DEWT_012010.nc | 18-Jan-2026 08:21 | 1502398 | ||
| 46029_TS_DEWT_012012.nc | 18-Jan-2026 08:35 | 1667265 | ||
| 46029_TS_DEWT_012014.nc | 18-Jan-2026 08:46 | 1663533 | ||
| 46029_TS_DEWT_012018.nc | 18-Jan-2026 09:13 | 1668901 | ||
| 46029_TS_DEWT_012019.nc | 18-Jan-2026 09:22 | 1662557 | ||
| 46029_TS_DEWT_012020.nc | 18-Jan-2026 09:28 | 1659065 | ||
| 46029_TS_DEWT_012021.nc | 18-Jan-2026 09:38 | 1824179 | ||
| 46029_TS_DEWT_012022.nc | 18-Jan-2026 09:47 | 1669837 | ||
| 46029_TS_DEWT_022001.nc | 18-Jan-2026 07:33 | 1667891 | ||
| 46029_TS_DEWT_022002.nc | 18-Jan-2026 07:40 | 1654182 | ||
| 46029_TS_DEWT_022003.nc | 18-Jan-2026 07:45 | 1666653 | ||
| 46029_TS_DEWT_022009.nc | 18-Jan-2026 08:17 | 1665907 | ||
| 46029_TS_DEWT_022010.nc | 18-Jan-2026 08:22 | 1475584 | ||
| 46029_TS_DEWT_022012.nc | 18-Jan-2026 08:36 | 1626705 | ||
| 46029_TS_DEWT_022014.nc | 18-Jan-2026 08:47 | 1625678 | ||
| 46029_TS_DEWT_022018.nc | 18-Jan-2026 09:13 | 1626399 | ||
| 46029_TS_DEWT_022019.nc | 18-Jan-2026 09:22 | 1625875 | ||
| 46029_TS_DEWT_022020.nc | 18-Jan-2026 09:28 | 1625441 | ||
| 46029_TS_DEWT_022021.nc | 18-Jan-2026 09:39 | 1626780 | ||
| 46029_TS_DEWT_032001.nc | 18-Jan-2026 07:34 | 1626512 | ||
| 46029_TS_DEWT_032002.nc | 18-Jan-2026 07:40 | 1625325 | ||
| 46029_TS_DEWT_032003.nc | 18-Jan-2026 07:45 | 1626607 | ||
| 46029_TS_DEWT_032008.nc | 18-Jan-2026 08:13 | 1626042 | ||
| 46029_TS_DEWT_032009.nc | 18-Jan-2026 08:17 | 1626922 | ||
| 46029_TS_DEWT_032010.nc | 18-Jan-2026 08:23 | 1626907 | ||
| 46029_TS_DEWT_032012.nc | 18-Jan-2026 08:36 | 1469763 | ||
| 46029_TS_DEWT_032013.nc | 18-Jan-2026 08:42 | 1473493 | ||
| 46029_TS_DEWT_032014.nc | 18-Jan-2026 08:48 | 1469974 | ||
| 46029_TS_DEWT_032018.nc | 18-Jan-2026 09:14 | 1469817 | ||
| 46029_TS_DEWT_032019.nc | 18-Jan-2026 09:22 | 1469396 | ||
| 46029_TS_DEWT_032020.nc | 18-Jan-2026 09:29 | 1472624 | ||
| 46029_TS_DEWT_042001.nc | 18-Jan-2026 07:34 | 1469613 | ||
| 46029_TS_DEWT_042002.nc | 18-Jan-2026 07:41 | 1469974 | ||
| 46029_TS_DEWT_042003.nc | 18-Jan-2026 07:46 | 1469830 | ||
| 46029_TS_DEWT_042008.nc | 18-Jan-2026 08:13 | 1473033 | ||
| 46029_TS_DEWT_042009.nc | 18-Jan-2026 08:18 | 1469654 | ||
| 46029_TS_DEWT_042010.nc | 18-Jan-2026 08:23 | 1469832 | ||
| 46029_TS_DEWT_042013.nc | 18-Jan-2026 08:42 | 1469292 | ||
| 46029_TS_DEWT_042014.nc | 18-Jan-2026 08:48 | 1624206 | ||
| 46029_TS_DEWT_042018.nc | 18-Jan-2026 09:17 | 1477268 | ||
| 46029_TS_DEWT_042019.nc | 18-Jan-2026 09:23 | 1626524 | ||
| 46029_TS_DEWT_042020.nc | 18-Jan-2026 09:29 | 1626715 | ||
| 46029_TS_DEWT_052001.nc | 18-Jan-2026 07:35 | 1476017 | ||
| 46029_TS_DEWT_052002.nc | 18-Jan-2026 07:41 | 1625485 | ||
| 46029_TS_DEWT_052003.nc | 18-Jan-2026 07:46 | 1626577 | ||
| 46029_TS_DEWT_052008.nc | 18-Jan-2026 08:13 | 1626841 | ||
| 46029_TS_DEWT_052010.nc | 18-Jan-2026 08:24 | 1626639 | ||
| 46029_TS_DEWT_052011.nc | 18-Jan-2026 08:30 | 1626657 | ||
| 46029_TS_DEWT_052013.nc | 18-Jan-2026 08:42 | 1158527 | ||
| 46029_TS_DEWT_052014.nc | 18-Jan-2026 08:48 | 1626625 | ||
| 46029_TS_DEWT_052017.nc | 18-Jan-2026 09:04 | 1626932 | ||
| 46029_TS_DEWT_052018.nc | 18-Jan-2026 09:18 | 1477058 | ||
| 46029_TS_DEWT_052019.nc | 18-Jan-2026 09:23 | 1477044 | ||
| 46029_TS_DEWT_052020.nc | 18-Jan-2026 09:30 | 1476992 | ||
| 46029_TS_DEWT_052021.nc | 18-Jan-2026 09:41 | 1477072 | ||
| 46029_TS_DEWT_052025.nc | 18-Jan-2026 10:37 | 1473728 | ||
| 46029_TS_DEWT_062001.nc | 18-Jan-2026 07:35 | 1475707 | ||
| 46029_TS_DEWT_062002.nc | 18-Jan-2026 07:42 | 1475377 | ||
| 46029_TS_DEWT_062003.nc | 18-Jan-2026 07:46 | 1476828 | ||
| 46029_TS_DEWT_062008.nc | 18-Jan-2026 08:14 | 908957 | ||
| 46029_TS_DEWT_062009.nc | 18-Jan-2026 08:18 | 1476971 | ||
| 46029_TS_DEWT_062010.nc | 18-Jan-2026 08:25 | 1476799 | ||
| 46029_TS_DEWT_062011.nc | 18-Jan-2026 08:30 | 1476958 | ||
| 46029_TS_DEWT_062013.nc | 18-Jan-2026 08:43 | 1476264 | ||
| 46029_TS_DEWT_062014.nc | 18-Jan-2026 08:49 | 1473219 | ||
| 46029_TS_DEWT_062017.nc | 18-Jan-2026 09:05 | 1626873 | ||
| 46029_TS_DEWT_062018.nc | 18-Jan-2026 09:19 | 1626345 | ||
| 46029_TS_DEWT_062019.nc | 18-Jan-2026 09:24 | 1475106 | ||
| 46029_TS_DEWT_062020.nc | 18-Jan-2026 09:31 | 1476593 | ||
| 46029_TS_DEWT_062024.nc | 18-Jan-2026 10:23 | 1626578 | ||
| 46029_TS_DEWT_062025.nc | 18-Jan-2026 10:38 | 1456397 | ||
| 46029_TS_DEWT_072001.nc | 18-Jan-2026 07:35 | 1626557 | ||
| 46029_TS_DEWT_072002.nc | 18-Jan-2026 07:42 | 1626741 | ||
| 46029_TS_DEWT_072003.nc | 18-Jan-2026 07:47 | 1476216 | ||
| 46029_TS_DEWT_072008.nc | 18-Jan-2026 08:14 | 1624418 | ||
| 46029_TS_DEWT_072010.nc | 18-Jan-2026 08:26 | 1626801 | ||
| 46029_TS_DEWT_072011.nc | 18-Jan-2026 08:31 | 1626796 | ||
| 46029_TS_DEWT_072013.nc | 18-Jan-2026 08:44 | 1475888 | ||
| 46029_TS_DEWT_072014.nc | 18-Jan-2026 08:49 | 1470921 | ||
| 46029_TS_DEWT_072017.nc | 18-Jan-2026 09:07 | 1476677 | ||
| 46029_TS_DEWT_072018.nc | 18-Jan-2026 09:19 | 1477012 | ||
| 46029_TS_DEWT_072019.nc | 18-Jan-2026 09:25 | 1476765 | ||
| 46029_TS_DEWT_072020.nc | 18-Jan-2026 09:32 | 1476427 | ||
| 46029_TS_DEWT_072024.nc | 18-Jan-2026 10:25 | 1477035 | ||
| 46029_TS_DEWT_072025.nc | 18-Jan-2026 10:39 | 1477005 | ||
| 46029_TS_DEWT_082001.nc | 18-Jan-2026 07:36 | 1476207 | ||
| 46029_TS_DEWT_082002.nc | 18-Jan-2026 07:42 | 1476879 | ||
| 46029_TS_DEWT_082003.nc | 18-Jan-2026 07:47 | 1476760 | ||
| 46029_TS_DEWT_082008.nc | 18-Jan-2026 08:15 | 1477017 | ||
| 46029_TS_DEWT_082011.nc | 18-Jan-2026 08:32 | 1476099 | ||
| 46029_TS_DEWT_082012.nc | 18-Jan-2026 08:37 | 433449 | ||
| 46029_TS_DEWT_082014.nc | 18-Jan-2026 08:50 | 1626863 | ||
| 46029_TS_DEWT_082017.nc | 18-Jan-2026 09:07 | 1626534 | ||
| 46029_TS_DEWT_082018.nc | 18-Jan-2026 09:20 | 1626317 | ||
| 46029_TS_DEWT_082019.nc | 18-Jan-2026 09:25 | 1626793 | ||
| 46029_TS_DEWT_082020.nc | 18-Jan-2026 09:32 | 1476843 | ||
| 46029_TS_DEWT_082024.nc | 18-Jan-2026 10:26 | 1626315 | ||
| 46029_TS_DEWT_082025.nc | 18-Jan-2026 10:41 | 1626389 | ||
| 46029_TS_DEWT_092001.nc | 18-Jan-2026 07:37 | 1625701 | ||
| 46029_TS_DEWT_092002.nc | 18-Jan-2026 07:43 | 1472618 | ||
| 46029_TS_DEWT_092003.nc | 18-Jan-2026 07:47 | 1624831 | ||
| 46029_TS_DEWT_092008.nc | 18-Jan-2026 08:15 | 1475878 | ||
| 46029_TS_DEWT_092011.nc | 18-Jan-2026 08:33 | 1626941 | ||
| 46029_TS_DEWT_092012.nc | 18-Jan-2026 08:38 | 1626933 | ||
| 46029_TS_DEWT_092013.nc | 18-Jan-2026 08:45 | 1626539 | ||
| 46029_TS_DEWT_092014.nc | 18-Jan-2026 08:50 | 1626931 | ||
| 46029_TS_DEWT_092017.nc | 18-Jan-2026 09:08 | 1626929 | ||
| 46029_TS_DEWT_092018.nc | 18-Jan-2026 09:20 | 1626354 | ||
| 46029_TS_DEWT_092019.nc | 18-Jan-2026 09:26 | 1626844 | ||
| 46029_TS_DEWT_092020.nc | 18-Jan-2026 09:33 | 1626167 | ||
| 46029_TS_DEWT_092024.nc | 18-Jan-2026 10:28 | 1626893 | ||
| 46029_TS_DEWT_092025.nc | 18-Jan-2026 10:42 | 1626785 | ||
| 46029_TS_DEWT_102001.nc | 18-Jan-2026 07:37 | 1476963 | ||
| 46029_TS_DEWT_102002.nc | 18-Jan-2026 07:43 | 1626207 | ||
| 46029_TS_DEWT_102003.nc | 18-Jan-2026 07:48 | 1625257 | ||
| 46029_TS_DEWT_102008.nc | 18-Jan-2026 08:15 | 1470530 | ||
| 46029_TS_DEWT_102011.nc | 18-Jan-2026 08:33 | 1626938 | ||
| 46029_TS_DEWT_102012.nc | 18-Jan-2026 08:39 | 1472652 | ||
| 46029_TS_DEWT_102013.nc | 18-Jan-2026 08:45 | 1471102 | ||
| 46029_TS_DEWT_102017.nc | 18-Jan-2026 09:10 | 1477083 | ||
| 46029_TS_DEWT_102018.nc | 18-Jan-2026 09:20 | 1476771 | ||
| 46029_TS_DEWT_102019.nc | 18-Jan-2026 09:26 | 1477091 | ||
| 46029_TS_DEWT_102020.nc | 18-Jan-2026 09:35 | 1476147 | ||
| 46029_TS_DEWT_102024.nc | 18-Jan-2026 10:29 | 1477052 | ||
| 46029_TS_DEWT_102025.nc | 18-Jan-2026 10:44 | 1475921 | ||
| 46029_TS_DEWT_112001.nc | 18-Jan-2026 07:38 | 1476693 | ||
| 46029_TS_DEWT_112002.nc | 18-Jan-2026 07:44 | 1476746 | ||
| 46029_TS_DEWT_112003.nc | 18-Jan-2026 07:48 | 1476272 | ||
| 46029_TS_DEWT_112008.nc | 18-Jan-2026 08:16 | 1476476 | ||
| 46029_TS_DEWT_112009.nc | 18-Jan-2026 08:20 | 1477046 | ||
| 46029_TS_DEWT_112011.nc | 18-Jan-2026 08:34 | 1477065 | ||
| 46029_TS_DEWT_112013.nc | 18-Jan-2026 08:46 | 1476831 | ||
| 46029_TS_DEWT_112017.nc | 18-Jan-2026 09:11 | 1626847 | ||
| 46029_TS_DEWT_112018.nc | 18-Jan-2026 09:21 | 1476169 | ||
| 46029_TS_DEWT_112019.nc | 18-Jan-2026 09:27 | 1626715 | ||
| 46029_TS_DEWT_112020.nc | 18-Jan-2026 09:36 | 1626942 | ||
| 46029_TS_DEWT_112024.nc | 18-Jan-2026 10:30 | 1625921 | ||
| 46029_TS_DEWT_112025.nc | 18-Jan-2026 10:45 | 1626887 | ||
| 46029_TS_DEWT_122000.nc | 18-Jan-2026 07:32 | 1626612 | ||
| 46029_TS_DEWT_122001.nc | 18-Jan-2026 07:38 | 1626917 | ||
| 46029_TS_DEWT_122002.nc | 18-Jan-2026 07:44 | 1626699 | ||
| 46029_TS_DEWT_122008.nc | 18-Jan-2026 08:16 | 1626541 | ||
| 46029_TS_DEWT_122009.nc | 18-Jan-2026 08:21 | 1477622 | ||
| 46029_TS_DEWT_122011.nc | 18-Jan-2026 08:34 | 1626667 | ||
| 46029_TS_DEWT_122013.nc | 18-Jan-2026 08:46 | 1473329 | ||
| 46029_TS_DEWT_122017.nc | 18-Jan-2026 09:12 | 1626909 | ||
| 46029_TS_DEWT_122018.nc | 18-Jan-2026 09:21 | 1476306 | ||
| 46029_TS_DEWT_122019.nc | 18-Jan-2026 09:27 | 1476991 | ||
| 46029_TS_DEWT_122020.nc | 18-Jan-2026 09:37 | 1476718 | ||
| 46029_TS_DEWT_122021.nc | 18-Jan-2026 09:46 | 1476349 | ||